• Em Portugal
  • Lista de países
  • Para 7 dias
  • Temperatura da água
  • Mapas de satélite
  • Mapa do tempo
  • Widgets de tempo
  • user-avatar
    Iniciar Sessão

    Previsão horária em Daliki

    Hoje, 20 Setembro, Quinta-feira

    Tempo Temperatura Precipitação Vento Pressão Humidade
    00:00 +17°C° 0 mm 3 m/s 746 mmHg 93%
    01:00 +16°C° 0 mm 2 m/s 746 mmHg 94%
    02:00 +16°C° 0 mm 2 m/s 746 mmHg 95%
    03:00 +16°C° 0 mm 2 m/s 746 mmHg 95%
    04:00 +15°C° 0 mm 2 m/s 747 mmHg 96%
    05:00 +15°C° 0 mm 2 m/s 747 mmHg 96%
    06:00 +15°C° 0 mm 2 m/s 747 mmHg 92%
    07:00 +16°C° 0 mm 2 m/s 747 mmHg 88%
    08:00 +17°C° 0 mm 2 m/s 747 mmHg 84%
    09:00 +19°C° 0 mm 2 m/s 748 mmHg 75%
    10:00 +20°C° 0 mm 2 m/s 748 mmHg 65%
    11:00 +23°C° 0 mm 2 m/s 748 mmHg 56%
    12:00 +24°C° 0 mm 3 m/s 748 mmHg 54%
    13:00 +25°C° 0 mm 3 m/s 748 mmHg 52%
    14:00 +26°C° 0 mm 3 m/s 748 mmHg 50%
    15:00 +25°C° 0 mm 2 m/s 748 mmHg 55%
    16:00 +24°C° 0 mm 2 m/s 747 mmHg 61%
    17:00 +24°C° 0 mm 1 m/s 747 mmHg 66%
    18:00 +22°C° 0 mm 1 m/s 747 mmHg 72%
    19:00 +21°C° 0 mm 1 m/s 747 mmHg 78%
    20:00 +19°C° 0 mm 1 m/s 747 mmHg 84%
    21:00 +19°C° 0 mm 1 m/s 747 mmHg 86%
    22:00 +19°C° 0 mm 1 m/s 748 mmHg 88%
    23:00 +18°C° 0 mm 1 m/s 748 mmHg 90%

    Amanhã, 21 Setembro, Sexta-feira

    Tempo Temperatura Precipitação Vento Pressão Humidade
    00:00 +17°C° 0 mm 2 m/s 748 mmHg 91%
    01:00 +17°C° 0 mm 2 m/s 748 mmHg 92%
    02:00 +17°C° 0 mm 2 m/s 748 mmHg 92%
    03:00 +17°C° 0 mm 2 m/s 748 mmHg 92%
    04:00 +17°C° 0 mm 2 m/s 748 mmHg 93%
    05:00 +16°C° 0 mm 2 m/s 748 mmHg 93%
    06:00 +17°C° 0 mm 2 m/s 748 mmHg 89%
    07:00 +18°C° 0 mm 2 m/s 748 mmHg 85%
    08:00 +19°C° 0 mm 3 m/s 748 mmHg 81%
    09:00 +21°C° 0 mm 3 m/s 748 mmHg 75%
    10:00 +24°C° 0 mm 3 m/s 748 mmHg 68%
    11:00 +26°C° 0 mm 3 m/s 748 mmHg 62%
    12:00 +26°C° 0 mm 4 m/s 747 mmHg 59%
    13:00 +27°C° 0 mm 4 m/s 747 mmHg 56%
    14:00 +27°C° 0 mm 4 m/s 747 mmHg 52%
    15:00 +26°C° 0 mm 4 m/s 747 mmHg 56%
    16:00 +25°C° 0 mm 3 m/s 746 mmHg 59%
    17:00 +24°C° 0 mm 3 m/s 746 mmHg 62%
    18:00 +22°C° 0 mm 3 m/s 745 mmHg 65%
    19:00 +20°C° 0 mm 3 m/s 745 mmHg 68%
    20:00 +19°C° 0 mm 3 m/s 745 mmHg 71%
    21:00 +19°C° 0 mm 4 m/s 745 mmHg 70%
    22:00 +19°C° 0 mm 4 m/s 744 mmHg 68%
    23:00 +19°C° 0 mm 5 m/s 744 mmHg 67%

    Depois de amanhã, 22 Setembro, Sábado

    Tempo Temperatura Precipitação Vento Pressão Humidade
    00:00 +19°C° 0 mm 5 m/s 743 mmHg 68%
    01:00 +17°C° 0 mm 5 m/s 743 mmHg 69%
    02:00 +17°C° 0 mm 5 m/s 742 mmHg 70%
    03:00 +17°C° 0 mm 5 m/s 742 mmHg 71%
    04:00 +17°C° 0 mm 5 m/s 742 mmHg 72%
    05:00 +16°C° 0 mm 5 m/s 741 mmHg 73%
    06:00 +16°C° 0 mm 5 m/s 741 mmHg 73%
    07:00 +17°C° 0 mm 5 m/s 741 mmHg 74%
    08:00 +17°C° 0 mm 5 m/s 741 mmHg 74%
    09:00 +16°C° 0.6 mm 5 m/s 742 mmHg 78%
    10:00 +15°C° 0.6 mm 4 m/s 742 mmHg 82%
    11:00 +14°C° 0.6 mm 4 m/s 742 mmHg 85%
    12:00 +14°C° 0.6 mm 4 m/s 743 mmHg 84%
    13:00 +14°C° 0.6 mm 4 m/s 743 mmHg 82%
    14:00 +13°C° 0.6 mm 4 m/s 743 mmHg 80%
    15:00 +13°C° 0.1 mm 4 m/s 743 mmHg 80%
    16:00 +13°C° 0.1 mm 3 m/s 743 mmHg 80%
    17:00 +12°C° 0.1 mm 3 m/s 743 mmHg 79%
    18:00 +12°C° 0.1 mm 3 m/s 743 mmHg 79%
    19:00 +11°C° 0.1 mm 4 m/s 743 mmHg 80%
    20:00 +11°C° 0.1 mm 4 m/s 743 mmHg 80%
    21:00 +10°C° 0.1 mm 3 m/s 743 mmHg 81%
    22:00 +10°C° 0.1 mm 3 m/s 743 mmHg 83%
    23:00 +10°C° 0.1 mm 3 m/s 743 mmHg 85%

    23 Setembro, Domingo

    Tempo Temperatura Precipitação Vento Pressão Humidade
    00:00 +9°C° 0 mm 3 m/s 743 mmHg 87%
    01:00 +8°C° 0 mm 3 m/s 743 mmHg 90%
    02:00 +8°C° 0 mm 2 m/s 743 mmHg 93%
    03:00 +7°C° 0 mm 2 m/s 742 mmHg 93%
    04:00 +7°C° 0 mm 3 m/s 742 mmHg 93%
    05:00 +7°C° 0 mm 3 m/s 742 mmHg 93%
    06:00 +8°C° 0 mm 3 m/s 742 mmHg 90%
    07:00 +7°C° 0 mm 4 m/s 742 mmHg 86%
    08:00 +8°C° 0 mm 4 m/s 742 mmHg 83%
    09:00 +10°C° 0 mm 5 m/s 742 mmHg 77%
    10:00 +12°C° 0 mm 5 m/s 742 mmHg 70%
    11:00 +13°C° 0 mm 6 m/s 742 mmHg 64%
    12:00 +13°C° 0.2 mm 6 m/s 742 mmHg 63%
    13:00 +12°C° 0.2 mm 7 m/s 742 mmHg 62%
    14:00 +14°C° 0.2 mm 7 m/s 742 mmHg 61%
    15:00 +13°C° 0.1 mm 6 m/s 742 mmHg 63%
    16:00 +13°C° 0.1 mm 5 m/s 742 mmHg 65%
    17:00 +12°C° 0.1 mm 4 m/s 742 mmHg 67%
    18:00 +11°C° 0 mm 4 m/s 742 mmHg 70%
    19:00 +10°C° 0 mm 4 m/s 742 mmHg 74%
    20:00 +9°C° 0 mm 3 m/s 742 mmHg 77%
    21:00 +9°C° 0 mm 3 m/s 742 mmHg 80%
    22:00 +8°C° 0 mm 3 m/s 742 mmHg 82%
    23:00 +8°C° 0 mm 3 m/s 741 mmHg 85%

    24 Setembro, Segunda-feira

    Tempo Temperatura Precipitação Vento Pressão Humidade
    00:00 +7°C° 0 mm 3 m/s 741 mmHg 85%
    01:00 +7°C° 0 mm 2 m/s 741 mmHg 86%
    02:00 +7°C° 0 mm 2 m/s 740 mmHg 86%
    03:00 +7°C° 0 mm 2 m/s 740 mmHg 84%
    04:00 +7°C° 0 mm 3 m/s 740 mmHg 82%
    05:00 +7°C° 0 mm 3 m/s 739 mmHg 79%
    06:00 +7°C° 0.1 mm 3 m/s 738 mmHg 78%
    07:00 +7°C° 0.1 mm 4 m/s 738 mmHg 77%
    08:00 +8°C° 0.1 mm 5 m/s 737 mmHg 76%
    09:00 +7°C° 1.6 mm 6 m/s 736 mmHg 80%
    10:00 +6°C° 1.6 mm 7 m/s 735 mmHg 85%
    11:00 +6°C° 1.6 mm 7 m/s 734 mmHg 89%
    12:00 +8°C° 1.3 mm 7 m/s 732 mmHg 89%
    13:00 +7°C° 1.3 mm 8 m/s 731 mmHg 90%
    14:00 +7°C° 1.3 mm 8 m/s 729 mmHg 90%
    15:00 +9°C° 1.8 mm 7 m/s 728 mmHg 91%
    16:00 +9°C° 1.8 mm 6 m/s 727 mmHg 92%
    17:00 +9°C° 1.8 mm 5 m/s 726 mmHg 93%
    18:00 +10°C° 1.1 mm 5 m/s 725 mmHg 94%
    19:00 +11°C° 1.1 mm 4 m/s 724 mmHg 95%
    20:00 +11°C° 1.1 mm 4 m/s 723 mmHg 95%
    21:00 +11°C° 1 mm 4 m/s 722 mmHg 95%
    22:00 +11°C° 1 mm 4 m/s 722 mmHg 94%
    23:00 +10°C° 1 mm 5 m/s 721 mmHg 94%

    25 Setembro, Terça-feira

    Tempo Temperatura Precipitação Vento Pressão Humidade
    00:00 +10°C° 1 mm 4 m/s 721 mmHg 94%
    01:00 +10°C° 1 mm 4 m/s 721 mmHg 94%
    02:00 +10°C° 1 mm 4 m/s 721 mmHg 94%
    03:00 +8°C° 0.6 mm 5 m/s 722 mmHg 93%
    04:00 +8°C° 0.6 mm 6 m/s 722 mmHg 92%
    05:00 +6°C° 0.6 mm 7 m/s 723 mmHg 91%
    06:00 +6°C° 0.4 mm 7 m/s 724 mmHg 89%
    07:00 +6°C° 0.4 mm 8 m/s 725 mmHg 88%
    08:00 +5°C° 0.4 mm 8 m/s 726 mmHg 87%
    09:00 +5°C° 0.4 mm 9 m/s 727 mmHg 86%
    10:00 +5°C° 0.4 mm 9 m/s 728 mmHg 85%
    11:00 +5°C° 0.4 mm 9 m/s 730 mmHg 85%
    12:00 +5°C° 0.3 mm 9 m/s 731 mmHg 84%
    13:00 +5°C° 0.3 mm 9 m/s 732 mmHg 82%
    14:00 +5°C° 0.3 mm 9 m/s 733 mmHg 81%
    15:00 +5°C° 0.1 mm 9 m/s 734 mmHg 80%
    16:00 +5°C° 0.1 mm 8 m/s 735 mmHg 79%
    17:00 +5°C° 0.1 mm 8 m/s 736 mmHg 78%
    18:00 +4°C° 0 mm 7 m/s 737 mmHg 77%
    19:00 +4°C° 0 mm 7 m/s 738 mmHg 76%
    20:00 +4°C° 0 mm 6 m/s 738 mmHg 75%
    21:00 +3°C° 0 mm 6 m/s 739 mmHg 74%
    22:00 +3°C° 0 mm 6 m/s 740 mmHg 74%
    23:00 +2°C° 0 mm 6 m/s 740 mmHg 73%
    Mostrar mais